Temp
6 7 9 9 10 10 11 11 11 12 12 12 12 13 13 14 14 15 15 16 16 17 17 18 18 18 18 18 21 23 23 23 22 22 22 22 22 22 21 23 24 24 23 24 23 24 25
6 6 6 7 9 10 10 11 11 11 12 12 12 13 13 14 15 15 15 16 16 17 18 18 18 17 17 16 22 23 23 23 22 22 23 23 23 23 22 24 23 23 21 21 23 23 24
6 6 6 6 7 8 9 10 10 11 11 12 12 13 13 14 14 15 16 16 17 17 18 18 17 17 17 21 22 22 22 23 22 23 23 23 23 23 24 23 25 23 20 20 20 22 22
5 5 6 6 6 6 8 9 10 10 11 11 12 12 13 14 14 15 16 17 17 17 18 18 17 17 18 22 22 21 21 22 22 22 23 23 23 24 24 24 23 22 18 19 21 21 22
5 5 5 5 5 6 6 7 8 10 10 11 12 12 13 13 14 15 16 17 18 17 17 17 17 16 18 21 21 22 22 22 22 22 23 23 23 23 23 19 18 17 19 20 19 21 22
4 5 5 5 5 5 6 6 7 8 9 11 11 12 12 13 14 14 16 17 17 16 17 17 16 16 20 22 22 23 23 22 22 23 23 23 23 19 17 17 17 19 19 18 20 22 20
4 4 5 5 5 5 5 5 6 6 8 9 11 11 12 13 14 14 16 17 16 16 16 18 18 19 20 21 22 22 23 23 22 23 20 22 18 18 18 18 20 20 20 21 20 21 22
3 4 4 4 5 5 5 5 5 5 6 8 9 11 11 12 13 13 13 13 12 12 12 18 18 18 21 20 19 23 23 22 22 19 20 20 17 19 20 20 20 20 20 20 20 21 21
2 2 3 4 4 4 5 5 5 5 5 6 8 9 11 12 12 13 12 12 12 12 11 16 20 20 21 21 20 22 23 22 21 19 19 18 20 21 21 20 20 20 20 21 21 22 20
1 1 2 3 3 4 4 4 5 4 5 5 7 8 9 11 12 12 12 12 12 12 10 15 17 20 21 21 20 22 22 23 21 19 19 19 21 20 21 21 21 20 22 22 22 20 19
1 1 1 2 3 3 4 4 5 4 4 5 5 7 8 9 11 11 11 12 12 12 8 18 20 22 22 21 21 21 22 22 19 20 19 18 20 20 20 21 21 21 22 23 22 19 19
1 1 1 1 1 2 3 4 4 4 4 4 5 5 7 7 10 11 11 12 12 8 8 17 21 19 18 20 21 22 21 22 22 20 20 19 22 21 21 22 22 24 22 18 17 17 17
0 0 1 1 1 1 2 3 3 4 4 4 4 4 5 6 9 10 10 11 8 5 15 18 19 20 18 18 19 20 20 18 17 17 17 19 19 20 22 22 21 21 17 15 16 15 16
0 0 0 0 1 1 1 2 4 3 3 3 4 4 5 7 9 8 9 8 6 11 15 18 20 19 18 18 18 18 18 17 17 18 16 17 16 19 21 21 20 20 17 14 17 15 16
-1 -1 -0 -0 0 1 1 2 2 2 3 3 3 4 4 8 8 7 7 5 8 11 16 17 19 18 17 18 19 17 16 17 17 18 17 15 17 20 20 21 21 20 18 18 17 17 15
-1 -1 -1 -1 -0 0 1 1 2 2 3 3 3 3 5 8 7 7 5 8 10 14 17 18 17 18 16 17 17 17 16 17 18 17 19 17 17 20 21 22 21 20 19 17 13 15 16
-1 -1 -1 -1 -0 -0 0 1 1 2 2 3 2 2 7 8 6 6 4 6 11 15 15 16 16 16 17 17 17 16 18 19 19 18 18 17 15 18 20 20 18 19 17 16 14 13 14
-1 -1 -1 -1 -1 -0 -0 1 1 1 2 3 2 0 7 7 5 5 5 8 13 14 15 14 15 16 16 17 17 18 17 19 21 20 16 16 14 15 18 20 20 19 17 16 12 16 13
-1 -1 -1 -1 -1 -1 -0 0 1 0 1 2 1 3 6 7 5 4 7 9 11 12 13 15 14 16 16 16 16 17 18 18 19 17 16 15 14 13 17 17 18 20 19 16 14 13 14
-1 -1 -1 -1 -1 -1 -0 0 1 1 1 2 1 1 5 6 7 7 7 9 10 12 12 13 13 15 15 15 15 15 17 18 17 16 17 17 14 14 15 16 16 18 19 16 15 11 14
-1 -1 -1 -1 -0 -1 -0 0 0 1 1 1 -0 1 5 3 6 5 7 9 10 11 12 14 13 13 14 13 14 14 16 17 17 17 17 14 14 16 16 17 17 18 19 18 16 15 14
-1 -1 -1 -0 -0 -0 -0 0 0 0 0 -0 -0 2 4 3 6 6 7 7 9 11 12 12 11 14 13 12 13 15 15 15 15 16 16 13 13 16 16 17 17 17 17 17 17 18 16
-1 -1 -1 -0 -0 -0 -0 0 1 0 0 -0 1 2 3 4 4 7 6 7 9 10 12 13 12 12 13 13 14 14 15 14 14 14 14 14 13 12 13 16 15 14 16 17 18 18 18
-1 -1 -1 -1 -0 -0 -0 0 0 0 0 0 1 3 2 2 4 7 6 7 8 10 10 12 13 12 14 14 14 15 15 14 14 13 13 12 12 10 10 13 11 15 16 18 15 13 13
-1 -1 -1 -0 -0 -0 -0 0 0 0 1 -0 1 1 2 2 4 5 8 7 8 9 8 8 9 10 13 13 10 10 7 12 11 14 13 12 9 8 9 10 12 14 16 16 16 12 12
-2 -1 -1 -0 -0 0 0 -0 0 0 0 -0 0 0 1 3 3 3 5 7 6 6 8 9 9 10 12 8 7 8 8 10 11 13 12 11 10 9 8 10 11 11 15 16 16 12 11
-2 -2 -1 -1 -0 -0 0 -0 -0 -0 0 -0 -0 0 1 1 2 3 4 4 5 7 6 7 9 10 10 4 5 8 9 12 10 10 11 10 8 7 7 9 9 12 12 17 13 10 11
-3 -2 -2 -1 -1 -0 -0 -0 -0 -0 0 0 0 0 1 1 2 2 1 2 3 4 6 7 7 7 5 5 7 6 7 10 11 12 11 10 8 5 6 7 8 12 12 13 10 11 11
-3 -2 -2 -2 -1 -0 -0 -0 0 -0 0 -0 -0 0 0 1 1 1 1 1 2 3 3 7 7 7 7 5 6 7 6 7 9 9 12 11 10 8 9 8 10 11 11 12 12 11 11
Height
1560 1558 1557 1555 1554 1552 1551 1550 1548 1547 1545 1543 1541 1540 1538 1536 1534 1532 1530 1529 1526 1524 1523 1522 1522 1522 1522 1521 1515 1513 1514 1517 1519 1521 1522 1525 1526 1528 1527 1523 1521 1521 1522 1520 1521 1522 1517
1558 1557 1555 1553 1552 1551 1549 1547 1546 1545 1543 1541 1539 1537 1536 1534 1532 1530 1528 1526 1524 1521 1520 1520 1520 1520 1520 1520 1512 1512 1514 1515 1516 1518 1520 1522 1523 1525 1524 1523 1523 1524 1522 1522 1522 1520 1518
1558 1556 1554 1552 1550 1549 1547 1546 1544 1543 1542 1541 1538 1536 1535 1533 1531 1529 1526 1523 1520 1518 1517 1517 1517 1517 1517 1510 1509 1510 1511 1513 1515 1516 1517 1519 1523 1525 1520 1519 1520 1522 1526 1525 1523 1521 1522
1555 1554 1553 1551 1549 1547 1546 1544 1542 1541 1539 1538 1537 1535 1533 1531 1529 1526 1523 1520 1517 1515 1514 1514 1514 1515 1510 1507 1508 1508 1510 1512 1513 1514 1515 1520 1522 1522 1519 1518 1519 1522 1529 1536 1523 1521 1520
1552 1550 1549 1549 1548 1546 1544 1542 1540 1538 1537 1535 1534 1533 1531 1530 1527 1524 1521 1517 1515 1513 1512 1512 1514 1513 1506 1503 1503 1506 1508 1509 1511 1513 1514 1518 1520 1519 1519 1523 1534 1533 1542 1535 1530 1517 1517
1548 1547 1545 1545 1544 1543 1542 1539 1537 1536 1533 1532 1531 1530 1529 1527 1525 1522 1519 1516 1514 1512 1512 1512 1512 1514 1501 1499 1500 1503 1506 1508 1510 1511 1514 1516 1517 1519 1522 1530 1549 1541 1540 1535 1530 1519 1518
1542 1542 1541 1540 1540 1539 1538 1537 1535 1533 1531 1529 1528 1527 1525 1524 1523 1520 1517 1514 1516 1514 1510 1505 1504 1499 1497 1497 1498 1499 1502 1505 1508 1510 1513 1513 1521 1527 1523 1522 1524 1528 1532 1528 1522 1513 1517
1536 1536 1536 1536 1536 1535 1534 1534 1533 1530 1528 1527 1525 1524 1523 1521 1521 1520 1518 1517 1518 1518 1508 1500 1498 1498 1495 1497 1499 1495 1499 1503 1504 1510 1510 1516 1522 1515 1514 1517 1521 1525 1528 1527 1519 1511 1517
1531 1531 1530 1529 1531 1530 1529 1529 1529 1528 1525 1523 1522 1521 1520 1519 1518 1519 1518 1518 1517 1515 1512 1493 1490 1490 1491 1495 1495 1492 1495 1498 1500 1507 1509 1518 1510 1509 1513 1515 1520 1519 1524 1519 1519 1511 1512
1528 1526 1524 1523 1524 1524 1524 1523 1523 1524 1522 1520 1518 1518 1517 1516 1519 1516 1516 1516 1515 1515 1518 1493 1483 1478 1485 1491 1490 1489 1491 1495 1498 1504 1508 1510 1503 1508 1510 1513 1512 1523 1506 1508 1511 1519 1534
1523 1521 1519 1519 1518 1518 1517 1518 1518 1518 1518 1517 1515 1514 1514 1515 1514 1514 1514 1514 1514 1514 1550 1477 1472 1471 1473 1482 1483 1481 1486 1491 1495 1498 1504 1507 1502 1506 1510 1507 1504 1511 1500 1503 1509 1522 1524
1516 1515 1514 1512 1512 1511 1510 1511 1513 1513 1513 1512 1511 1510 1510 1511 1510 1513 1511 1513 1514 1529 1534 1477 1465 1467 1473 1477 1478 1477 1481 1488 1491 1496 1497 1499 1495 1498 1499 1496 1496 1494 1502 1512 1517 1527 1546
1510 1508 1507 1506 1505 1504 1505 1505 1505 1507 1507 1507 1507 1506 1505 1506 1507 1509 1510 1512 1525 1539 1481 1471 1467 1463 1469 1474 1477 1477 1482 1488 1495 1507 1509 1500 1497 1492 1493 1497 1494 1497 1514 1546 1545 1552 1554
1503 1502 1500 1499 1498 1498 1497 1497 1497 1498 1499 1501 1502 1500 1498 1499 1503 1506 1509 1512 1528 1486 1476 1461 1460 1462 1470 1470 1473 1476 1481 1489 1487 1490 1505 1511 1516 1492 1486 1492 1500 1500 1509 1543 1549 1559 1547
1497 1495 1494 1492 1491 1490 1489 1490 1489 1491 1493 1495 1496 1494 1489 1493 1499 1503 1507 1515 1489 1479 1467 1465 1462 1466 1470 1465 1468 1475 1480 1482 1480 1480 1498 1508 1505 1483 1482 1484 1489 1499 1512 1504 1526 1531 1543
1490 1488 1486 1484 1483 1482 1481 1482 1482 1482 1484 1488 1490 1488 1480 1488 1492 1498 1502 1486 1475 1466 1463 1461 1469 1463 1471 1467 1472 1473 1476 1466 1471 1470 1472 1487 1502 1483 1481 1481 1481 1485 1489 1518 1534 1548 1550
1482 1480 1478 1476 1475 1474 1474 1474 1474 1475 1477 1479 1485 1484 1476 1478 1486 1493 1491 1479 1468 1463 1465 1464 1463 1464 1463 1464 1463 1468 1463 1460 1459 1466 1468 1479 1492 1488 1483 1485 1492 1489 1498 1506 1516 1528 1544
1473 1472 1470 1468 1467 1466 1466 1466 1468 1468 1466 1469 1476 1480 1471 1471 1480 1478 1475 1469 1465 1463 1462 1464 1461 1459 1461 1461 1463 1460 1462 1454 1450 1455 1471 1471 1487 1500 1485 1475 1473 1479 1485 1494 1528 1524 1525
1466 1464 1462 1460 1459 1458 1458 1459 1460 1463 1462 1464 1468 1469 1466 1467 1469 1470 1465 1464 1465 1463 1461 1461 1459 1457 1456 1461 1467 1460 1454 1452 1450 1452 1461 1467 1486 1505 1492 1483 1477 1478 1480 1487 1498 1509 1518
1458 1455 1452 1451 1451 1451 1451 1452 1453 1455 1458 1459 1465 1466 1463 1462 1458 1459 1462 1460 1461 1460 1461 1461 1459 1456 1458 1459 1460 1462 1458 1453 1453 1452 1453 1456 1475 1483 1493 1488 1483 1483 1480 1486 1493 1519 1511
1450 1447 1444 1443 1443 1443 1444 1445 1447 1450 1452 1452 1456 1455 1450 1455 1455 1455 1456 1454 1455 1456 1455 1455 1454 1457 1459 1463 1460 1462 1458 1455 1454 1454 1455 1458 1473 1471 1472 1471 1474 1476 1477 1480 1490 1492 1503
1442 1438 1436 1435 1435 1436 1437 1438 1441 1444 1446 1447 1449 1449 1446 1446 1447 1448 1452 1449 1448 1449 1450 1449 1455 1452 1454 1459 1457 1457 1456 1457 1456 1455 1456 1459 1474 1468 1475 1470 1473 1477 1479 1480 1481 1480 1485
1434 1431 1429 1428 1429 1430 1430 1432 1434 1437 1436 1438 1444 1445 1444 1442 1442 1442 1440 1443 1442 1446 1444 1443 1445 1451 1451 1450 1450 1451 1451 1453 1453 1455 1458 1462 1469 1481 1486 1474 1478 1490 1479 1478 1476 1475 1477
1428 1425 1423 1423 1423 1424 1425 1426 1428 1431 1433 1438 1441 1444 1445 1445 1443 1438 1439 1439 1441 1440 1443 1438 1438 1440 1444 1447 1451 1452 1452 1453 1453 1455 1455 1463 1470 1480 1493 1484 1504 1477 1468 1467 1476 1482 1481
1422 1419 1417 1417 1417 1418 1419 1422 1423 1425 1429 1431 1435 1441 1442 1443 1441 1438 1434 1438 1437 1439 1446 1442 1440 1438 1441 1445 1455 1462 1470 1460 1459 1456 1457 1458 1470 1489 1494 1495 1483 1473 1467 1470 1474 1488 1484
1418 1414 1412 1412 1412 1413 1414 1417 1419 1421 1425 1428 1432 1438 1440 1441 1441 1440 1437 1435 1437 1438 1443 1442 1441 1439 1440 1444 1455 1464 1471 1464 1466 1460 1458 1463 1466 1478 1491 1492 1493 1478 1465 1466 1468 1487 1484
1414 1411 1408 1408 1408 1409 1411 1413 1414 1416 1421 1426 1430 1435 1439 1440 1439 1438 1435 1435 1435 1435 1439 1442 1439 1440 1439 1448 1462 1461 1462 1451 1464 1464 1465 1471 1478 1485 1490 1488 1483 1469 1468 1465 1483 1489 1482
1412 1409 1406 1405 1405 1406 1408 1409 1412 1413 1419 1423 1430 1434 1438 1438 1438 1438 1436 1435 1436 1435 1437 1438 1441 1440 1443 1451 1453 1458 1459 1454 1456 1454 1457 1466 1478 1492 1492 1492 1489 1467 1467 1472 1478 1479 1480
1409 1406 1403 1402 1401 1402 1404 1406 1409 1411 1416 1422 1428 1432 1435 1438 1439 1439 1438 1438 1438 1439 1438 1437 1436 1436 1438 1446 1450 1451 1460 1457 1458 1464 1454 1465 1464 1470 1473 1476 1469 1468 1469 1473 1476 1478 1480
Wind_Speed
19 18 15 14 13 13 13 14 14 13 13 13 13 13 13 13 13 13 13 14 13 12 11 11 11 10 9 7 10 4 15 13 14 14 14 13 12 9 4 4 11 2 6 5 4 7 4
18 19 20 18 15 15 14 15 15 15 15 14 14 14 14 14 14 14 14 14 13 12 11 10 10 10 8 6 6 6 8 16 16 16 15 17 8 5 13 6 2 5 13 6 8 8 5
17 18 20 21 21 19 17 16 16 16 16 16 15 15 15 15 14 15 15 15 14 13 10 9 9 9 12 18 4 9 13 12 15 16 19 20 7 9 7 3 9 5 5 4 8 4 1
19 19 19 20 22 22 21 19 18 18 17 18 17 17 16 16 15 16 15 15 14 11 8 8 8 9 12 9 16 9 12 10 10 14 21 15 9 13 4 3 7 4 5 4 4 3 4
20 20 21 20 21 22 23 22 21 19 19 18 18 18 17 16 15 16 15 15 12 7 6 6 7 7 9 7 12 16 16 14 7 14 14 13 12 2 3 4 5 6 1 1 7 6 1
22 20 22 22 23 21 23 24 23 23 20 20 19 18 18 17 15 16 14 12 6 5 4 5 6 4 12 8 15 19 14 17 17 10 13 12 5 3 4 4 5 4 2 4 4 2 3
26 26 23 23 24 24 22 23 24 23 23 21 20 19 18 17 14 13 13 5 4 3 9 10 6 9 4 5 6 18 20 17 16 18 5 5 3 5 9 7 4 4 4 7 5 6 4
25 28 26 26 26 25 25 23 24 24 23 23 21 20 18 16 13 8 7 4 5 7 11 19 26 23 25 15 8 11 18 15 9 6 5 1 6 9 8 6 6 7 10 10 5 4 6
24 26 28 27 30 27 27 26 25 25 24 22 22 20 18 16 13 7 5 1 7 8 6 13 22 25 25 13 11 14 17 19 5 5 6 8 8 11 8 10 8 9 8 5 7 1 4
26 25 25 29 30 28 30 28 28 25 24 22 20 19 17 17 10 7 8 6 6 5 3 7 8 14 21 10 8 22 15 11 4 10 6 7 15 9 7 8 7 6 7 4 4 5 2
26 26 26 26 29 32 29 30 29 28 25 22 21 18 16 14 9 6 10 7 4 2 3 6 6 9 21 19 6 13 29 16 10 6 7 8 5 6 9 12 8 10 5 4 4 4 2
27 27 28 28 27 31 32 28 31 30 28 23 21 19 19 14 17 11 11 3 3 5 7 6 8 8 8 20 6 2 19 21 13 7 4 8 13 6 8 8 6 4 5 6 5 4 2
28 29 29 30 29 29 30 29 30 31 28 25 22 20 20 18 14 11 9 3 3 5 4 5 6 6 9 9 10 4 4 7 8 7 9 4 8 5 5 5 5 3 6 3 3 3 6
29 30 31 31 30 29 28 29 34 28 27 25 25 23 22 23 18 13 6 2 5 7 8 3 3 8 9 7 10 8 6 10 6 6 4 7 6 7 4 7 8 5 7 6 5 4 5
31 31 31 30 30 30 29 27 27 36 28 24 27 25 29 22 18 15 6 4 8 6 6 3 3 5 6 7 6 9 8 8 9 11 10 6 7 5 6 6 10 5 4 7 6 2 3
31 32 31 30 30 30 29 28 26 29 27 27 24 22 33 19 16 20 3 13 6 5 3 2 6 4 8 8 9 10 9 7 7 10 10 7 2 4 7 2 6 11 6 4 3 5 4
32 30 30 30 29 29 28 27 26 26 34 28 19 8 15 20 18 20 7 8 6 16 6 2 3 4 1 1 7 7 9 6 12 8 12 9 6 12 4 5 8 3 4 5 5 5 6
29 31 30 29 29 27 27 26 26 23 29 28 15 2 7 30 10 7 8 6 8 5 22 6 3 5 3 1 2 2 9 10 21 12 10 9 6 7 15 5 6 1 7 8 5 5 4
30 32 32 31 28 27 25 26 26 20 28 26 8 9 11 39 8 6 5 11 7 3 5 3 6 5 3 3 2 2 2 3 1 5 11 7 3 2 6 5 4 4 3 5 5 4 6
29 29 29 28 28 26 24 24 23 19 26 34 7 2 12 25 15 10 5 12 9 18 17 10 5 5 3 3 4 4 5 3 4 3 7 10 5 8 10 6 5 3 5 6 7 4 4
29 29 28 26 25 25 24 24 22 19 24 34 11 6 5 5 15 11 6 5 15 9 18 8 5 10 4 5 4 5 5 2 2 4 2 5 5 4 4 4 4 5 3 5 5 6 7
29 27 26 24 22 22 22 23 23 21 23 31 9 5 4 2 9 14 16 6 8 15 7 13 12 6 7 6 7 4 6 2 4 1 2 3 2 3 2 2 3 3 4 4 4 5 5
28 23 22 20 20 20 20 22 21 19 27 20 18 7 2 2 3 3 12 11 4 8 9 18 14 8 5 4 8 10 7 5 3 6 3 3 5 3 3 2 5 6 5 6 3 1 2
25 22 20 18 19 20 19 20 21 21 31 29 23 11 3 3 3 6 9 15 16 16 7 9 16 11 9 16 14 12 10 9 9 6 3 5 5 3 3 4 6 5 3 4 9 5 5
23 20 19 18 19 20 18 17 21 20 26 39 22 18 7 2 2 7 7 5 9 8 4 4 5 3 22 14 4 4 5 3 4 0 4 4 4 3 5 4 3 4 2 4 4 2 1
19 14 15 16 18 19 18 19 19 19 30 35 23 20 9 1 2 8 4 5 2 4 8 3 2 3 8 3 3 5 5 5 4 3 4 5 5 4 3 5 7 7 5 4 5 4 3
21 14 12 12 15 16 16 17 17 16 27 37 23 16 13 2 2 7 2 2 3 2 4 3 3 2 4 2 3 3 3 5 5 8 5 4 1 5 2 4 5 3 6 2 5 4 9
20 17 14 12 12 14 15 16 19 20 29 38 27 16 10 3 4 6 10 7 4 4 3 7 3 2 3 3 3 3 3 3 3 3 5 6 6 4 2 2 6 2 2 2 8 11 12
16 18 15 13 12 14 16 17 19 19 21 21 27 22 11 1 4 5 9 8 10 4 5 2 1 4 4 4 1 3 2 2 3 2 2 2 4 5 6 5 6 16 17 14 9 11 8
Wind_Direction
354 348 335 325 324 320 319 319 319 319 320 323 324 324 326 328 328 326 323 319 310 300 287 278 273 271 281 273 254 23 182 186 204 220 239 230 227 239 245 292 318 53 107 101 131 179 68
344 346 346 337 322 316 313 313 313 313 312 313 316 318 320 324 325 323 321 319 313 302 284 268 265 265 260 260 242 183 185 202 205 220 228 219 221 299 300 262 120 38 72 116 56 28 358
329 333 336 339 336 322 312 307 307 307 307 307 309 310 312 316 318 317 318 317 313 302 277 257 250 253 250 237 209 220 219 223 219 227 220 217 243 290 273 352 349 80 92 346 9 15 251
312 317 322 326 330 331 319 310 302 301 301 303 305 305 306 310 314 314 317 315 311 297 262 245 239 243 249 247 244 213 211 211 222 221 219 222 266 290 300 356 15 39 65 37 269 243 193
296 302 307 311 316 322 325 317 307 300 296 296 298 299 301 303 309 311 316 311 309 293 250 226 226 222 256 224 240 219 230 217 191 211 228 238 278 214 320 73 19 12 114 64 307 221 186
287 288 294 299 304 309 315 320 314 305 298 292 292 294 296 299 307 313 316 316 297 281 245 206 203 242 250 240 227 220 220 213 214 213 238 252 199 67 22 81 199 189 195 237 235 256 184
279 283 286 287 292 297 302 310 315 311 302 296 289 290 293 296 303 320 317 329 291 250 232 219 233 235 193 58 224 220 201 211 225 227 198 226 107 200 231 219 150 208 233 276 229 221 182
287 276 279 283 283 285 290 296 303 309 306 297 293 288 289 289 295 304 325 19 11 312 302 247 246 246 246 267 300 225 204 209 193 183 155 292 226 220 230 236 215 206 236 264 298 266 193
303 290 275 274 275 279 280 285 289 297 305 302 292 289 286 283 285 270 259 261 293 297 264 277 236 231 237 237 233 228 203 218 157 166 174 190 232 217 227 259 259 251 195 200 210 239 186
304 304 291 278 272 276 276 274 278 284 294 302 296 289 285 281 277 239 218 221 281 307 357 267 213 232 217 201 241 230 217 188 178 193 174 222 244 230 237 237 218 262 251 223 91 81 293
299 299 296 288 277 271 272 266 271 277 281 291 299 285 277 275 257 238 224 228 266 272 360 249 203 203 196 177 172 220 214 204 189 177 143 234 205 204 233 239 235 226 224 125 116 93 55
300 297 293 291 284 276 270 274 262 270 274 278 288 287 275 261 254 240 244 264 179 52 246 284 183 161 122 196 216 59 186 210 214 185 220 219 252 182 220 245 231 234 103 46 62 96 355
298 295 294 289 285 279 275 268 263 259 264 270 276 283 273 256 237 237 253 212 60 160 265 234 201 161 162 185 223 159 158 176 178 162 219 280 262 266 222 276 336 107 74 11 0 25 234
297 296 291 288 284 278 274 268 258 256 259 262 269 275 267 249 229 244 259 90 195 208 215 351 205 171 176 166 218 195 162 202 219 135 173 211 282 215 220 178 193 183 145 153 181 170 241
295 294 291 286 284 276 272 269 266 254 250 253 262 271 272 233 236 217 202 188 214 204 195 220 10 176 219 210 162 188 203 204 202 177 175 180 243 279 233 210 165 207 136 181 135 24 87
291 290 288 283 281 277 271 267 264 252 265 240 250 273 266 231 216 195 164 234 214 225 308 61 193 192 197 197 172 189 191 202 207 189 160 208 278 197 254 193 257 191 162 86 16 148 210
288 289 290 283 280 278 268 265 266 256 253 229 232 268 264 211 188 178 213 226 259 258 306 324 224 223 113 57 197 189 207 244 187 195 169 168 146 263 133 189 208 128 129 68 118 141 171
287 287 289 282 279 279 267 262 255 258 240 208 201 212 236 178 165 199 219 200 234 260 265 247 308 212 188 62 320 242 212 201 191 168 169 196 163 210 240 223 159 153 168 147 136 209 200
289 287 287 280 277 274 267 261 251 261 246 204 193 231 266 181 186 217 240 225 253 285 239 241 227 202 167 143 352 280 357 20 188 141 164 168 210 142 306 325 355 155 199 129 113 83 191
293 289 286 278 271 272 264 256 253 256 239 215 185 227 217 202 218 206 192 218 212 220 261 258 297 310 249 200 174 278 354 345 17 118 145 130 142 164 203 214 163 184 180 166 139 127 197
297 293 283 278 268 266 260 250 247 247 230 197 184 228 207 197 217 229 193 233 214 210 213 244 224 230 220 216 182 232 233 247 51 146 43 114 138 150 164 181 154 193 216 223 182 198 173
298 295 283 272 263 262 256 246 243 241 224 197 179 215 209 283 191 206 217 219 217 211 211 230 225 191 198 196 197 168 183 186 210 147 95 5 166 107 97 94 64 190 193 240 240 225 228
300 293 283 267 255 257 259 244 243 241 216 199 204 216 265 287 324 221 209 219 220 199 265 248 210 200 220 222 169 149 164 123 137 162 139 115 121 92 224 114 42 302 210 179 190 231 223
305 291 282 261 253 254 256 239 237 236 222 219 203 203 173 257 221 229 249 206 231 248 277 317 214 190 196 137 122 107 87 73 69 58 109 124 108 96 169 72 242 235 296 174 112 68 64
312 295 279 262 257 254 247 233 232 239 221 203 191 202 168 243 275 300 238 292 285 198 295 339 340 125 149 146 88 74 352 43 322 31 69 85 113 100 144 190 309 304 266 108 104 130 89
313 301 281 265 255 250 244 233 226 225 209 201 182 203 185 265 182 309 255 197 200 148 173 258 196 106 155 100 103 153 178 159 194 187 170 74 72 110 148 170 206 221 281 303 113 228 144
326 315 296 271 257 251 236 236 223 221 200 216 187 193 200 248 96 352 10 62 340 144 125 223 235 99 39 91 102 144 193 176 165 162 165 131 69 167 158 218 283 281 319 26 151 218 137
325 320 300 284 259 243 229 231 226 233 206 209 204 197 185 175 69 73 56 49 9 75 154 169 105 344 51 72 117 187 138 186 115 186 149 159 151 181 109 151 270 326 25 178 146 131 124
316 320 304 273 267 238 227 236 218 190 195 200 191 190 186 238 73 117 96 64 60 3 252 277 181 137 145 101 110 115 89 61 134 205 0 164 194 178 169 198 156 92 107 109 131 142 139